Location: Miles
(41.4492°N, 81.6087°W)
Time: 18:35:51
(UTC+00:00)

Tiros 1 despin weight - Pass Details

Date: 15 September 2024
Orbit: 573 x 615 km, 48.2° (Epoch: 04 October)

Event Time Altitude Azimuth Distance (km) Brightness Sun altitude
Rises 10:10:47 0° 268° (W) 2,878 - -11.3°
Reaches altitude 10° 10:13:11 10° 276° (W) 1,978 - -10.8°
Exits shadow 10:13:42 13° 279° (W) 1,793 ? -10.8°
Maximum altitude 10:17:30 41° 347° (NNW) 898 ? -10.1°
Drops below altitude 10° 10:21:51 10° 58° (ENE) 1,985 ? -9.3°
Sets 10:24:16 0° 66° (ENE) 2,890 ? -8.8°
